Regional Weather Roundup
Issued by NWS

Home | Current Version | Previous Version | Text Only | Print | Product List | Glossary Off
Versions: 1 2 3 4 5 6 7 8 9 10 11 12 13 14 15 16 17 18 19 20 21 22 23 24 25 26 27 28 29 30 31 32 33 34 35 36 37 38 39 40 41 42 43 44 45 46 47 48 49 50

841
ASUS43 KFSD 051302
RWRSD

WEATHER ROUNDUP FOR SOUTH DAKOTA
NATIONAL WEATHER SERVICE SIOUX FALLS SD
800 AM CDT THU MAY 05 2016

NOTE: "FAIR" INDICATES FEW OR NO CLOUDS BELOW 12,000 FEET WITH NO
SIGNIFICANT WEATHER AND/OR OBSTRUCTIONS TO VISIBILITY.


SDZ001>005-009-010-012>017-051400-
NORTHWEST AND NORTH CENTRAL SOUTH DAKOTA

CITY           SKY/WX    TMP DP  RH WIND       PRES   REMARKS
BUFFALO          N/A     50  42  74 CALM      29.88S
FAITH            N/A     53  41  63 S20       29.94S
MOBRIDGE       SUNNY     54  46  74 SE10      29.94R
$$

SDZ012>016-024>037-041>051-057-063-072>074-051400-
SOUTHWEST AND SOUTH CENTRAL SOUTH DAKOTA

CITY           SKY/WX    TMP DP  RH WIND       PRES   REMARKS
RAPID CTY ARPT SUNNY     49  43  80 E3        29.96S
PIERRE         SUNNY     51  44  77 E3        29.98S
CUSTER         SUNNY     49  38  65 N6        30.08S
PHILIP         SUNNY     55  42  61 SE7       29.97F
PINE RIDGE     SUNNY     54  42  64 SW7       30.02R
WINNER         FAIR      58  39  49 S7        30.03S
$$

SDZ004>011-016>023-039-040-051400-
NORTHEAST SOUTH DAKOTA

CITY           SKY/WX    TMP DP  RH WIND       PRES   REMARKS
ABERDEEN       SUNNY     49  41  74 S9        29.98R
WATERTOWN      SUNNY     48  38  68 S7        30.01S
BROOKINGS      SUNNY     47  39  74 CALM      30.03S
SISSETON         N/A     64  38  38 W12       29.94S
$$

SDZ017-020-022-023-036>040-048>070-051400-
SOUTHEAST SOUTH DAKOTA

CITY           SKY/WX    TMP DP  RH WIND       PRES   REMARKS
SIOUX FALLS    MOSUNNY   48  43  82 CALM      30.06R
HURON          SUNNY     52  43  71 S5        30.01R
MITCHELL       SUNNY     53  43  68 S3        30.04R
YANKTON        SUNNY     48  45  87 CALM      30.06R
$$

ABBREVIATIONS USED IN REMARKS
   TC - TEMPERATURE IN CELSIUS
  WCI - WIND CHILL INDEX
   HX - HEAT INDEX
  VSB - VISIBILITY





USA.gov is the U.S. government's official web portal to all federal, state and local government web resources and services.